Rawlins, WY

2:21 AM MST on February 18, 2018 (GMT -0700)
Rawlins Municipal

Weather History for KRWL - February, 2014

Change the Weather History Date:

Friday, February 28, 2014

  Actual Average Record
Temperature  
Mean Temperature 39 °F 27 °F  
Max Temperature 46 °F 38 °F 53 °F (1972)
Min Temperature 31 °F 17 °F -10 °F (1962)
Degree Days  
Heating Degree Days 26 38  
Month to date heating degree days 1091 1156  
Since 1 July heating degree days 5764 5957  
Cooling Degree Days 0 0  
Month to date cooling degree days 0 0  
Year to date cooling degree days 0 0  
Moisture  
Dew Point 26 °F    
Average Humidity 67    
Maximum Humidity 92    
Minimum Humidity 41    
Precipitation  
Precipitation T in 0.02 in 0.25 in (1957)
Month to date precipitation 0.18 0.42  
Year to date precipitation 0.36 0.78  
Sea Level Pressure  
Sea Level Pressure 29.64 in    
Wind  
Wind Speed 25 mph (WSW)    
Max Wind Speed 40 mph    
Max Gust Speed 49 mph    
Visibility 10 miles    
Events Snow    
T = Trace of Precipitation, MM = Missing Value Source: NWS Daily Summary

Daily Weather History Graph

Daily Weather History Graph

Search for Another Location

Airport or City:

Trip Planner

Search our weather history database for the weather conditions in past years. The results will help you decide how hot, cold, wet, or windy it might be!

Date:

Astronomy

Feb. 28, 2014 Rise Set
Actual Time 6:45 AM MST 5:58 PM MST
Civil Twilight 6:17 AM MST 6:26 PM MST
Nautical Twilight 5:44 AM MST 6:58 PM MST
Astronomical Twilight 5:12 AM MST 7:30 PM MST
Moon 6:01 AM MST (2/28) 5:38 PM MST (2/28)
Length of Visible Light 12h 08m
Length of Day
11h 12m
Waning Crescent, 0% of the Moon is Illuminated
Feb 28
Waning Crescent
Mar 1
New
Mar 8
First Quarter
Mar 16
Full
Mar 23
Last Quarter

Hourly Weather History & Observations

Time (MST) Temp. Windchill Dew Point Humidity Pressure Visibility Wind Dir Wind Speed Gust Speed Precip Events Conditions
12:53 AM 34.0 °F 21.8 °F 30.9 °F 89% 29.54 in 9.0 mi WSW 23.0 mph 33.4 mph 0.00 in Snow Light Snow
1:53 AM 34.0 °F 22.7 °F 30.0 °F 85% 29.56 in 10.0 mi WSW 19.6 mph 28.8 mph 0.00 in   Overcast
2:53 AM 33.1 °F 20.6 °F 28.9 °F 85% 29.62 in 10.0 mi WSW 23.0 mph - N/A   Overcast
3:27 AM 32.0 °F 18.4 °F 28.4 °F 87% 29.65 in 10.0 mi WSW 26.5 mph 34.5 mph N/A   Scattered Clouds
3:53 AM 32.0 °F 19.8 °F 28.0 °F 85% 29.63 in 10.0 mi WSW 20.7 mph 29.9 mph N/A   Mostly Cloudy
4:53 AM 30.9 °F 20.2 °F 28.0 °F 89% 29.65 in 10.0 mi WSW 15.0 mph - N/A   Scattered Clouds
5:43 AM 32.0 °F 20.5 °F 26.6 °F 80% 29.68 in 10.0 mi WSW 18.4 mph 25.3 mph N/A   Mostly Cloudy
5:53 AM 32.0 °F 19.8 °F 27.0 °F 82% 29.67 in 10.0 mi WSW 20.7 mph 29.9 mph N/A   Mostly Cloudy
6:53 AM 33.1 °F 21.9 °F 26.1 °F 75% 29.71 in 10.0 mi WSW 18.4 mph 27.6 mph N/A   Overcast
7:48 AM 33.8 °F 22.5 °F 26.6 °F 75% 29.73 in 10.0 mi WSW 19.6 mph 27.6 mph 0.00 in   Overcast
7:53 AM 34.0 °F 22.1 °F 26.1 °F 73% 29.71 in 10.0 mi WSW 21.9 mph 27.6 mph 0.00 in   Overcast
8:53 AM 36.0 °F 23.2 °F 25.0 °F 64% 29.69 in 10.0 mi SW 28.8 mph 38.0 mph N/A   Mostly Cloudy
9:53 AM 37.0 °F 25.9 °F 25.0 °F 62% 29.68 in 6.0 mi WSW 23.0 mph 41.4 mph 0.00 in Snow Light Snow
10:53 AM 41.0 °F 29.0 °F 23.0 °F 49% 29.66 in 10.0 mi West 35.7 mph 49.5 mph 0.00 in   Partly Cloudy
11:53 AM 44.1 °F 33.5 °F 23.0 °F 43% 29.66 in 10.0 mi WSW 33.4 mph 42.6 mph N/A   Partly Cloudy
12:53 PM 43.0 °F 32.2 °F 26.1 °F 51% 29.64 in 10.0 mi SW 32.2 mph 41.4 mph N/A   Mostly Cloudy
1:53 PM 41.0 °F 31.4 °F 21.9 °F 47% 29.63 in 10.0 mi SW 21.9 mph 33.4 mph 0.00 in   Overcast
2:53 PM 43.0 °F 33.3 °F 21.0 °F 42% 29.62 in 10.0 mi SW 25.3 mph 33.4 mph N/A   Overcast
3:53 PM 43.0 °F 33.3 °F 21.0 °F 42% 29.61 in 10.0 mi SW 25.3 mph 33.4 mph N/A   Overcast
4:53 PM 41.0 °F 31.4 °F 21.9 °F 47% 29.63 in 10.0 mi SW 21.9 mph 33.4 mph N/A   Overcast
5:53 PM 39.0 °F 27.4 °F 24.1 °F 55% 29.64 in 10.0 mi WSW 28.8 mph 42.6 mph N/A   Overcast
6:53 PM 37.0 °F 25.1 °F 27.0 °F 67% 29.66 in 10.0 mi SW 26.5 mph 33.4 mph 0.00 in   Overcast
7:53 PM 35.1 °F 21.6 °F 27.0 °F 72% 29.65 in 10.0 mi SW 31.1 mph 41.4 mph N/A   Overcast
8:53 PM 35.1 °F 23.3 °F 27.0 °F 72% 29.62 in 10.0 mi SW 23.0 mph 32.2 mph N/A   Partly Cloudy
9:53 PM 35.1 °F 24.8 °F 27.0 °F 72% 29.62 in 10.0 mi SW 17.3 mph 28.8 mph N/A   Clear
10:53 PM 37.0 °F 25.1 °F 26.1 °F 65% 29.54 in 10.0 mi SW 26.5 mph 36.8 mph N/A   Overcast
11:53 PM 37.0 °F 25.1 °F 26.1 °F 65% 29.51 in 10.0 mi SSW 26.5 mph 34.5 mph N/A   Mostly Cloudy